Regional Weather Roundup
Issued by NWS

Home | Current Version | Previous Version | Graphics & Text | Print | Product List | Glossary On
Versions: 1 2 3 4 5 6 7 8 9 10 11 12 13 14 15 16 17 18 19 20 21 22 23 24 25 26 27 28 29 30 31 32 33 34 35 36 37 38 39 40 41 42 43 44 45 46 47 48 49 50
000
ASUS45 KCYS 280310
RWRWY

WYOMING REGIONAL WEATHER ROUNDUP
NATIONAL WEATHER SERVICE CHEYENNE WY
900 PM MDT WED AUG 27 2014

NOTE:  "FAIR" INDICATES FEW OR NO CLOUDS BELOW 12,000 FEET
WITH NO SIGNIFICANT WEATHER AND/OR OBSTRUCTIONS TO VISIBILITY.

WYZ001-280400-
YELLOWSTONE NATIONAL PARK

CITY           SKY/WX    TMP DP  RH WIND       PRES   REMARKS
LK YELLOWSTONE   N/A     55  41  59 CALM      30.36R
W YELLOWSTONE  NOT AVBL

$$
WYZ002>013-054>058-071-098>099-280400-
NORTHERN WYOMING

CITY           SKY/WX    TMP DP  RH WIND       PRES   REMARKS
JACKSON        CLEAR     63  39  42 W3        30.26R
CODY           PTCLDY    64  52  63 SE5       30.15R
GREYBULL       PTCLDY    69  54  58 S7        30.08R
WORLAND        MOCLDY    62  54  74 S3        30.10R
SHERIDAN       CLOUDY    65  53  65 S3        30.07R
BUFFALO        CLOUDY    61  55  81 S9        30.15S
GILLETTE       CLOUDY    60  57  89 W5        30.11R
HULETT         CLOUDY    63  55  77 MISG      30.13
NEWCASTLE      LGT RAIN  59  59 100 NW3       30.13

$$
WYZ014>020-022>026-101>103-280400-
CENTRAL WYOMING

CITY           SKY/WX    TMP DP  RH WIND       PRES   REMARKS
BIG PINEY      CLOUDY    53  50  89 S5        30.33R
PINEDALE       CLOUDY    52  50  93 CALM      30.33S
DUBOIS         FAIR      52  43  71 CALM      30.28R
LANDER         CLOUDY    60  49  66 SW8       30.18R
RIVERTON       CLOUDY    58  53  84 E5        30.19S
CASPER         CLOUDY    58  54  86 W6        30.19R
DOUGLAS        CLOUDY    62  58  86 N9        30.16S

$$
WYZ021-027>030-104>119-280400-
SOUTHERN WYOMING

CITY           SKY/WX    TMP DP  RH WIND       PRES   REMARKS
EVANSTON       CLOUDY    50  49  96 SW10      30.35F
KEMMERER         N/A     50  48  93 CALM      30.35R
FORT BRIDGER     N/A     52  50  90 SW14      30.36F
ROCK SPRINGS   LGT RAIN  51  49  92 W16       30.30R
DIXON          CLOUDY    55  52  90 CALM      30.32R
RAWLINS        MOCLDY    53  47  79 SW10      30.28R
SARATOGA       FAIR      48  45  87 W3        30.30R
LARAMIE        PTCLDY    50  45  83 SW7       30.26R
CHEYENNE       PTCLDY    56  51  84 NW7       30.20R
TORRINGTON     CLOUDY    62  59  90 N8        30.09R
PINE BLUFFS    FAIR      57  54  88 CALM      30.14R

$$


USA.gov is the U.S. government's official web portal to all federal, state and local government web resources and services.